Temp
-4 -4 -4 -4 -4 -4 -4 -4 -4 -3 -2 -2 -2 -2 -2 -2 -1 -1 -2 -1 -0 0 0 0 1 2 3 4 5 4 3 3 3 2 4 5 5 7 7 6 7 7 6 5 5 5 5 6 6 7 6 3 4 4
-4 -4 -4 -4 -4 -4 -4 -4 -4 -4 -3 -3 -3 -3 -2 -2 -1 -2 -2 -1 -1 -0 0 -1 -0 0 1 2 4 3 5 4 5 5 6 6 5 6 7 6 9 5 6 7 7 8 5 6 5 2 2 4 2 1
-4 -4 -4 -4 -4 -4 -4 -3 -4 -4 -3 -3 -3 -3 -2 -2 -2 -2 -2 -2 -2 -1 -1 -1 0 1 1 2 1 3 3 4 2 2 2 4 5 7 6 6 7 8 6 6 5 7 6 3 2 2 1 2 1 -0
-4 -4 -4 -4 -4 -4 -4 -4 -4 -4 -3 -2 -2 -2 -2 -2 -2 -2 -2 -2 -2 -1 1 1 0 0 1 1 1 1 2 1 2 1 1 2 4 6 6 6 6 7 6 6 5 4 3 3 2 2 -0 -0 -1 -2
-5 -4 -4 -4 -4 -3 -3 -3 -3 -3 -3 -3 -2 -2 -2 -2 -2 -2 -2 -2 -2 -0 -0 1 -1 -0 1 1 0 0 1 1 1 1 2 2 4 3 2 3 5 5 4 5 7 7 7 4 3 0 -1 -1 -2 -2
-4 -5 -5 -4 -4 -3 -3 -3 -2 -3 -3 -3 -3 -2 -2 -2 -2 -3 -3 -2 -2 -2 -1 -0 0 -0 -0 -0 -0 -0 -0 -0 0 0 3 4 1 1 3 4 6 5 3 3 4 2 0 -0 -1 -1 -2 -2 -3 -3
-5 -5 -5 -4 -4 -4 -3 -3 -3 -3 -3 -3 -2 -3 -3 -3 -2 -2 -1 -1 -1 -2 -2 0 1 -1 -0 -1 -0 -0 0 -0 -0 -0 0 1 0 2 3 6 5 2 1 1 -0 -0 -2 -1 -2 -3 -3 -4 -4 -4
-5 -5 -4 -4 -5 -4 -4 -4 -4 -3 -3 -3 -3 -3 -4 -3 -3 -2 -2 -1 -2 -2 -2 0 2 -1 -1 -1 -1 -1 -1 -1 -1 -0 -1 1 2 4 5 3 1 -0 -1 -1 -1 -1 -0 -2 -3 -4 -4 -5 -5 -5
-2 -3 -2 -3 -3 -3 -3 -3 -3 -3 -2 -2 -3 -3 -3 -3 -3 -3 -3 -3 -3 -2 -0 0 1 1 -1 -1 -1 -1 -1 1 -1 1 4 3 4 5 5 3 1 -0 -0 -1 -2 -2 -3 -3 -3 -4 -5 -5 -5 -6
-2 -1 -1 -2 -2 -1 -1 -2 -3 -3 -2 -2 -3 -3 -3 -3 -2 -2 -2 -3 -2 -2 -1 0 -1 1 -1 0 1 2 1 3 3 4 3 4 6 2 1 1 0 -1 -1 -2 -2 -2 -3 -3 -4 -4 -4 -5 -5 -6
-2 -1 -1 -1 -1 0 -0 -2 -2 -2 -2 -3 -2 -2 -2 -2 -2 -2 -2 -1 -1 -0 -1 1 0 2 0 3 3 3 4 4 4 4 5 5 5 2 -0 -0 -1 -2 -2 -2 -2 -2 -2 -3 -4 -5 -5 -5 -6 -6
-2 -2 0 1 1 0 -1 -2 -2 -2 -2 -1 -2 -2 -2 -2 -2 -1 0 1 2 3 1 3 3 3 2 1 4 3 4 4 4 3 4 4 2 -1 -1 -1 -2 -2 -2 -2 -2 -3 -3 -4 -4 -5 -6 -6 -7 -7
-2 -2 -1 -0 -1 -1 -1 -2 -2 -1 -2 -2 -2 -2 -1 -1 -1 1 1 2 2 2 1 2 2 2 2 3 2 4 3 3 2 2 4 2 -0 -1 -1 -2 -3 -3 -2 -2 -3 -4 -5 -5 -5 -6 -7 -7 -8 -8
-2 -2 -2 -2 -2 -2 -2 -2 -2 -2 -1 -0 -1 -1 -1 0 0 1 2 2 -1 -0 2 2 1 2 1 1 0 2 -0 1 2 2 3 1 -1 -2 -2 -2 -3 -3 -2 -3 -3 -4 -5 -5 -5 -6 -6 -6 -6 -7
-2 -2 -2 -2 -2 -2 -3 -2 -1 -1 -1 -1 -1 -1 -0 -1 -2 -2 -2 -1 -2 -1 1 2 1 2 1 0 0 1 0 2 2 2 1 -1 -2 -2 -2 -2 -2 -2 -3 -3 -4 -4 -5 -5 -5 -6 -6 -6 -6 -7
-2 -2 -2 -2 -2 -2 -1 -0 -0 -0 -1 -2 -2 -1 -1 -1 -1 -1 -2 -1 -1 -0 1 2 1 2 1 1 1 1 2 2 1 -0 -2 -3 -3 -2 -2 -2 -2 -2 -3 -3 -4 -4 -5 -6 -6 -6 -6 -7 -7 -7
-2 -2 -1 -1 -1 0 1 1 0 -1 -2 -2 -2 -4 -3 -2 -1 -2 -2 -1 -0 0 1 3 2 1 1 1 1 0 1 -0 -2 -2 -3 -3 -2 -2 -2 -2 -2 -3 -3 -3 -4 -4 -5 -6 -6 -6 -6 -7 -7 -7
-1 -1 -0 0 0 0 0 -0 -1 -2 -2 -3 -1 -3 -3 -3 -2 -2 -1 -0 -0 1 2 1 0 0 1 0 1 -0 -2 -4 -4 -4 -3 -3 -3 -2 -2 -2 -3 -3 -3 -4 -4 -4 -5 -5 -6 -6 -6 -7 -7 -8
-1 -1 -0 1 1 0 -1 -2 -2 -2 -3 -3 -3 -3 -3 -3 -2 -2 -1 0 1 0 0 1 0 1 0 0 -1 -2 -3 -3 -3 -4 -4 -3 -3 -3 -3 -3 -4 -5 -5 -4 -4 -5 -5 -5 -7 -7 -6 -6 -7 -8
-1 -1 -0 0 1 -0 -2 -2 -2 -2 -2 -3 -3 -3 -3 -3 -2 -1 -1 -1 -1 -0 0 -0 -0 -1 -1 -3 -3 -3 -3 -3 -3 -4 -5 -4 -4 -4 -4 -5 -5 -5 -5 -5 -5 -5 -5 -6 -6 -6 -6 -7 -8 -8
-0 -0 0 1 0 -1 -3 -3 -3 -3 -3 -2 -3 -2 -2 -2 -2 -2 -2 -2 -1 -1 -1 -2 -3 -3 -3 -3 -3 -3 -3 -4 -4 -4 -4 -5 -4 -4 -4 -4 -5 -5 -6 -6 -6 -6 -6 -7 -6 -6 -6 -7 -8 -8
-0 -0 0 0 -1 -2 -3 -3 -3 -3 -2 -2 -2 -2 -2 -2 -2 -2 -3 -2 -3 -4 -3 -3 -3 -4 -4 -4 -4 -4 -4 -4 -4 -5 -5 -4 -5 -4 -4 -5 -5 -6 -6 -6 -6 -6 -6 -7 -6 -6 -7 -7 -8 -8
-0 -0 -1 -1 -2 -3 -4 -3 -3 -3 -2 -2 -3 -2 -2 -2 -3 -3 -2 -4 -4 -4 -4 -4 -4 -4 -4 -4 -4 -5 -5 -6 -5 -5 -5 -5 -5 -5 -5 -6 -6 -6 -7 -7 -7 -7 -7 -7 -7 -7 -8 -8 -9 -9
-1 -1 -2 -3 -3 -3 -4 -3 -2 -2 -2 -2 -2 -2 -2 -2 -3 -2 -1 -2 -4 -5 -4 -4 -4 -4 -4 -5 -5 -5 -5 -5 -5 -5 -5 -6 -6 -6 -6 -7 -7 -7 -7 -8 -7 -7 -7 -7 -8 -8 -9 -9 -9 -10
-2 -4 -4 -4 -5 -3 -3 -3 -3 -2 -3 -3 -3 -3 -2 -3 -2 -2 -2 -2 -4 -4 -4 -4 -4 -4 -4 -4 -4 -5 -4 -5 -5 -5 -5 -6 -6 -6 -6 -7 -7 -7 -7 -7 -7 -8 -8 -8 -9 -9 -9 -10 -10 -10
-3 -5 -3 -4 -4 -3 -3 -3 -3 -3 -3 -4 -3 -3 -3 -3 -3 -2 -1 -3 -4 -4 -4 -4 -4 -5 -5 -4 -4 -5 -4 -5 -5 -5 -5 -5 -6 -6 -6 -7 -7 -7 -7 -8 -8 -8 -8 -9 -9 -9 -10 -10 -10 -11
-3 -4 -5 -5 -5 -4 -4 -5 -4 -4 -4 -3 -3 -3 -4 -4 -3 -2 -5 -5 -5 -4 -4 -4 -5 -5 -5 -5 -4 -5 -5 -5 -5 -5 -5 -5 -6 -6 -6 -7 -7 -7 -7 -7 -8 -8 -9 -9 -9 -10 -10 -10 -10 -11
-5 -6 -4 -5 -5 -6 -4 -5 -4 -4 -3 -5 -4 -4 -4 -4 -3 -5 -5 -5 -4 -5 -5 -5 -6 -6 -6 -5 -5 -5 -5 -5 -5 -5 -6 -6 -6 -6 -6 -6 -7 -7 -7 -8 -8 -8 -9 -9 -9 -9 -10 -10 -10 -11
-5 -6 -6 -7 -7 -6 -5 -5 -4 -5 -5 -5 -4 -3 -4 -5 -4 -4 -4 -5 -5 -6 -6 -6 -6 -6 -6 -6 -6 -5 -6 -6 -6 -6 -6 -7 -7 -6 -7 -7 -7 -7 -7 -8 -8 -9 -9 -9 -9 -10 -10 -10 -10 -11
-6 -6 -6 -8 -6 -4 -5 -5 -5 -6 -5 -6 -6 -5 -5 -4 -4 -5 -5 -5 -6 -6 -7 -7 -6 -6 -6 -6 -6 -6 -6 -7 -7 -7 -7 -7 -7 -6 -7 -7 -7 -8 -8 -8 -9 -9 -9 -10 -10 -10 -10 -10 -10 -11
-6 -7 -6 -6 -5 -6 -6 -6 -6 -6 -6 -6 -6 -6 -4 -5 -4 -4 -5 -5 -5 -6 -7 -7 -7 -7 -7 -7 -7 -8 -8 -8 -7 -8 -8 -7 -7 -7 -7 -7 -7 -8 -8 -8 -8 -9 -9 -9 -9 -9 -10 -10 -10 -10
-7 -6 -6 -5 -5 -7 -6 -6 -6 -6 -6 -6 -6 -6 -6 -6 -5 -5 -4 -5 -6 -6 -6 -7 -7 -7 -7 -7 -7 -8 -8 -7 -7 -7 -7 -7 -7 -7 -7 -7 -8 -8 -8 -8 -9 -9 -9 -9 -9 -9 -9 -10 -10 -10
-8 -8 -8 -8 -6 -6 -6 -7 -7 -7 -7 -7 -6 -7 -6 -5 -4 -4 -4 -5 -6 -6 -6 -6 -7 -7 -7 -7 -7 -8 -8 -8 -8 -8 -8 -8 -8 -8 -8 -8 -8 -8 -8 -9 -9 -9 -9 -9 -9 -9 -9 -10 -10 -10
Height
1345 1346 1346 1347 1348 1349 1349 1347 1343 1339 1337 1339 1345 1352 1360 1368 1374 1381 1387 1395 1399 1402 1405 1407 1409 1412 1419 1423 1422 1430 1435 1436 1440 1441 1436 1430 1430 1422 1420 1423 1420 1421 1424 1424 1425 1426 1422 1416 1424 1422 1418 1419 1419 1422
1342 1344 1345 1346 1346 1347 1348 1348 1347 1344 1343 1346 1351 1358 1365 1371 1376 1382 1388 1391 1396 1404 1404 1406 1408 1412 1417 1421 1424 1426 1424 1425 1426 1427 1423 1420 1421 1419 1414 1414 1412 1419 1414 1411 1416 1404 1413 1413 1415 1416 1418 1419 1421 1423
1339 1341 1342 1343 1345 1346 1347 1349 1351 1350 1351 1353 1356 1362 1368 1373 1379 1384 1389 1394 1399 1403 1405 1406 1405 1409 1412 1416 1421 1423 1424 1425 1427 1428 1428 1422 1418 1410 1410 1408 1409 1407 1413 1411 1413 1405 1411 1415 1417 1416 1416 1420 1420 1422
1336 1338 1339 1341 1342 1344 1345 1347 1350 1351 1353 1355 1359 1364 1369 1374 1379 1383 1388 1394 1400 1402 1403 1401 1401 1403 1406 1411 1415 1419 1422 1422 1424 1427 1427 1424 1415 1410 1405 1405 1405 1405 1408 1404 1407 1410 1412 1412 1411 1414 1416 1415 1418 1423
1332 1334 1336 1337 1339 1340 1343 1345 1346 1348 1349 1353 1358 1364 1370 1376 1381 1387 1391 1394 1397 1402 1400 1399 1400 1399 1400 1405 1409 1414 1417 1420 1421 1422 1421 1419 1414 1416 1413 1412 1401 1404 1402 1402 1395 1398 1400 1402 1404 1409 1412 1413 1417 1420
1327 1328 1331 1333 1336 1338 1340 1343 1347 1349 1352 1355 1357 1363 1370 1376 1382 1387 1392 1393 1395 1399 1403 1401 1395 1394 1396 1399 1404 1407 1411 1416 1417 1416 1415 1411 1413 1416 1406 1400 1396 1397 1400 1401 1401 1402 1403 1404 1406 1409 1411 1413 1417 1421
1319 1321 1324 1327 1331 1335 1339 1343 1346 1348 1350 1353 1356 1362 1371 1377 1381 1386 1390 1389 1391 1397 1401 1397 1389 1390 1392 1396 1400 1404 1408 1410 1413 1415 1414 1413 1409 1408 1404 1391 1395 1398 1400 1400 1401 1402 1405 1406 1406 1409 1411 1414 1418 1423
1308 1310 1313 1318 1324 1330 1336 1341 1344 1347 1349 1352 1356 1362 1370 1377 1383 1387 1388 1387 1390 1396 1399 1393 1384 1387 1387 1389 1394 1397 1401 1405 1407 1408 1409 1406 1404 1399 1391 1394 1397 1398 1399 1400 1402 1402 1403 1404 1406 1410 1412 1415 1419 1424
1292 1293 1298 1306 1314 1324 1332 1339 1343 1346 1350 1355 1359 1367 1375 1381 1384 1385 1388 1388 1389 1394 1391 1386 1379 1374 1381 1383 1388 1392 1396 1397 1401 1401 1398 1399 1391 1388 1389 1392 1395 1397 1399 1401 1402 1403 1404 1406 1408 1411 1414 1417 1420 1424
1286 1288 1293 1298 1306 1318 1330 1339 1344 1348 1353 1358 1365 1370 1375 1377 1381 1384 1389 1391 1388 1385 1385 1379 1379 1372 1376 1376 1382 1387 1389 1387 1388 1391 1394 1389 1382 1390 1392 1393 1395 1397 1399 1401 1403 1405 1405 1407 1410 1412 1415 1419 1422 1425
1292 1293 1296 1301 1308 1319 1331 1340 1346 1351 1356 1360 1364 1366 1369 1374 1378 1381 1381 1383 1380 1375 1375 1374 1374 1371 1374 1372 1375 1379 1378 1381 1379 1385 1385 1381 1379 1390 1392 1394 1396 1398 1400 1402 1403 1403 1405 1407 1409 1412 1416 1420 1423 1426
1305 1304 1307 1313 1320 1329 1337 1344 1348 1353 1357 1359 1361 1364 1369 1374 1375 1375 1371 1371 1368 1363 1369 1369 1370 1371 1374 1373 1373 1378 1377 1380 1377 1387 1383 1379 1387 1391 1393 1396 1397 1399 1401 1402 1402 1403 1404 1407 1409 1413 1416 1419 1423 1426
1323 1322 1323 1327 1332 1338 1344 1350 1354 1357 1357 1361 1364 1365 1367 1370 1368 1365 1364 1362 1362 1365 1368 1369 1371 1372 1373 1374 1377 1377 1379 1381 1387 1384 1379 1384 1390 1393 1395 1397 1398 1400 1402 1402 1403 1404 1405 1407 1410 1413 1415 1419 1421 1424
1337 1337 1338 1340 1344 1348 1352 1355 1357 1360 1360 1362 1365 1366 1366 1363 1363 1362 1360 1360 1365 1365 1367 1368 1371 1371 1375 1377 1380 1379 1388 1386 1381 1380 1378 1386 1391 1393 1396 1398 1400 1401 1403 1404 1405 1406 1407 1409 1411 1413 1416 1418 1421 1424
1346 1346 1348 1350 1352 1355 1357 1359 1360 1361 1363 1363 1365 1366 1365 1366 1366 1365 1365 1365 1366 1367 1368 1370 1372 1374 1376 1379 1381 1383 1384 1378 1377 1376 1385 1389 1391 1393 1396 1399 1401 1402 1404 1405 1406 1408 1409 1411 1412 1415 1417 1420 1423 1426
1354 1353 1354 1355 1357 1358 1360 1361 1363 1364 1365 1367 1369 1367 1367 1365 1366 1366 1366 1366 1367 1367 1369 1371 1373 1375 1378 1378 1378 1377 1375 1374 1381 1386 1389 1390 1392 1395 1398 1400 1402 1403 1405 1406 1408 1409 1411 1413 1415 1417 1419 1422 1424 1427
1361 1360 1361 1361 1361 1360 1360 1361 1361 1362 1365 1367 1369 1370 1368 1367 1368 1368 1368 1368 1368 1370 1371 1371 1373 1377 1380 1378 1379 1381 1379 1384 1387 1389 1390 1391 1393 1396 1398 1400 1402 1404 1405 1407 1409 1410 1412 1414 1416 1418 1420 1423 1425 1428
1364 1364 1363 1362 1361 1361 1361 1361 1363 1366 1369 1370 1369 1371 1370 1370 1370 1370 1369 1369 1370 1371 1372 1373 1377 1378 1378 1378 1378 1382 1386 1388 1389 1390 1391 1392 1394 1396 1398 1400 1402 1404 1406 1407 1409 1411 1413 1415 1417 1419 1421 1423 1425 1428
1366 1365 1365 1364 1362 1361 1362 1365 1366 1369 1373 1373 1373 1372 1372 1372 1372 1371 1371 1370 1370 1371 1373 1375 1376 1376 1378 1380 1382 1384 1386 1387 1389 1391 1392 1393 1395 1396 1398 1400 1402 1404 1406 1407 1409 1411 1413 1415 1417 1418 1420 1422 1424 1427
1368 1366 1365 1364 1362 1362 1365 1368 1368 1370 1372 1374 1374 1374 1374 1374 1373 1373 1372 1372 1373 1374 1375 1377 1378 1380 1381 1382 1383 1383 1385 1387 1389 1391 1393 1394 1395 1397 1398 1400 1401 1403 1405 1407 1409 1410 1412 1414 1415 1417 1418 1420 1422 1424
1368 1367 1365 1364 1363 1363 1367 1369 1370 1372 1373 1374 1375 1375 1375 1374 1374 1374 1374 1374 1375 1376 1378 1379 1380 1381 1381 1382 1383 1384 1385 1387 1389 1391 1392 1394 1395 1396 1398 1399 1401 1402 1404 1406 1407 1409 1410 1412 1413 1415 1416 1418 1421 1423
1368 1367 1366 1365 1365 1367 1370 1371 1372 1373 1375 1375 1375 1375 1376 1376 1376 1376 1375 1375 1377 1378 1379 1379 1381 1382 1382 1383 1383 1384 1386 1387 1389 1390 1392 1393 1394 1396 1397 1399 1400 1401 1403 1404 1405 1406 1408 1409 1411 1413 1415 1417 1419 1421
1368 1367 1367 1367 1368 1370 1375 1373 1374 1374 1374 1375 1376 1375 1376 1376 1377 1376 1376 1377 1377 1377 1378 1379 1381 1382 1383 1384 1384 1386 1387 1388 1389 1390 1391 1392 1393 1395 1396 1398 1399 1400 1401 1402 1403 1404 1405 1406 1408 1410 1412 1414 1417 1419
1369 1368 1368 1369 1370 1373 1374 1374 1374 1374 1374 1374 1374 1375 1376 1376 1377 1376 1373 1374 1376 1376 1378 1379 1380 1382 1383 1385 1386 1386 1387 1388 1389 1390 1391 1392 1392 1393 1394 1395 1396 1397 1399 1400 1401 1402 1402 1404 1405 1407 1410 1412 1414 1417
1371 1372 1372 1372 1373 1373 1373 1374 1374 1374 1374 1375 1376 1375 1375 1376 1375 1374 1371 1372 1374 1376 1377 1378 1380 1381 1382 1384 1385 1386 1386 1388 1389 1389 1390 1391 1392 1392 1393 1393 1394 1395 1396 1397 1398 1399 1400 1401 1403 1405 1407 1409 1412 1415
1370 1372 1372 1372 1373 1372 1373 1372 1373 1374 1374 1375 1375 1375 1376 1375 1374 1369 1368 1370 1372 1374 1375 1377 1379 1380 1381 1382 1384 1384 1386 1387 1388 1389 1390 1390 1391 1391 1392 1392 1393 1394 1394 1395 1395 1396 1397 1399 1401 1403 1405 1407 1410 1413
1370 1371 1372 1372 1372 1373 1373 1374 1374 1374 1373 1372 1373 1374 1375 1373 1368 1368 1369 1369 1371 1372 1374 1375 1376 1378 1379 1380 1381 1382 1384 1385 1386 1388 1388 1388 1389 1389 1390 1391 1391 1392 1392 1392 1393 1394 1395 1397 1399 1401 1403 1406 1409 1412
1371 1371 1372 1373 1372 1372 1372 1373 1372 1371 1372 1373 1374 1373 1371 1369 1367 1369 1369 1369 1370 1371 1372 1373 1374 1375 1376 1377 1379 1380 1381 1383 1384 1385 1386 1386 1386 1387 1388 1389 1389 1390 1390 1391 1392 1393 1394 1396 1399 1401 1403 1405 1408 1411
1371 1371 1372 1373 1372 1372 1372 1372 1372 1372 1372 1373 1371 1369 1369 1368 1368 1367 1368 1368 1369 1369 1370 1370 1372 1373 1374 1375 1377 1378 1379 1381 1382 1383 1383 1384 1384 1385 1386 1386 1387 1388 1388 1389 1391 1392 1394 1397 1399 1401 1403 1405 1408 1410
1371 1370 1371 1372 1372 1369 1371 1371 1371 1371 1371 1371 1370 1369 1368 1367 1366 1366 1366 1366 1366 1367 1368 1369 1370 1371 1372 1374 1375 1376 1377 1378 1378 1380 1381 1381 1382 1382 1383 1384 1385 1386 1387 1389 1390 1391 1393 1396 1398 1400 1402 1404 1407 1409
1370 1370 1370 1370 1368 1368 1368 1369 1369 1369 1368 1368 1367 1367 1365 1364 1363 1362 1362 1362 1363 1364 1365 1366 1368 1369 1370 1371 1373 1374 1374 1374 1374 1375 1376 1378 1379 1380 1381 1382 1383 1384 1386 1387 1389 1391 1393 1395 1397 1399 1401 1403 1406 1408
1369 1369 1369 1368 1367 1367 1367 1368 1367 1366 1365 1364 1363 1362 1362 1362 1361 1357 1355 1356 1358 1359 1361 1363 1364 1365 1367 1369 1370 1371 1372 1372 1372 1372 1373 1375 1376 1378 1378 1379 1381 1382 1384 1386 1388 1390 1392 1394 1396 1397 1399 1401 1404 1406
1369 1368 1368 1367 1366 1366 1366 1366 1365 1363 1362 1360 1359 1358 1358 1357 1355 1352 1350 1349 1351 1354 1356 1359 1361 1363 1365 1366 1368 1369 1369 1370 1370 1371 1372 1373 1374 1376 1377 1378 1379 1381 1383 1384 1386 1388 1390 1392 1394 1396 1397 1399 1401 1403
Wind_Speed
10 8 8 8 8 8 5 7 11 10 11 22 28 24 26 24 22 20 15 14 8 6 8 10 11 10 14 17 8 9 7 6 9 8 6 7 8 11 14 13 16 11 7 7 13 10 11 11 11 8 0 1 4 8
9 8 8 8 8 8 7 4 5 8 11 15 25 24 23 23 21 20 13 13 12 6 5 8 11 12 10 9 13 14 6 7 10 7 8 6 7 5 14 14 11 9 11 8 8 3 3 20 2 7 3 3 7 13
10 10 10 11 10 9 8 6 4 5 5 8 13 17 21 22 21 17 13 17 13 6 4 7 13 19 20 18 13 10 9 10 4 4 2 4 7 6 10 12 13 9 8 6 1 7 7 13 10 6 6 5 10 14
11 12 12 12 11 10 9 7 6 5 7 14 18 18 18 18 18 16 14 15 12 7 4 6 13 20 22 22 27 20 12 8 10 8 5 3 4 5 6 6 8 5 7 9 9 5 5 13 16 13 10 10 13 15
13 14 15 14 13 12 8 6 5 5 3 9 22 22 21 20 19 17 14 15 12 6 1 2 7 15 18 23 24 22 21 15 8 6 5 5 4 2 2 3 9 8 7 9 7 3 7 2 13 14 13 14 17 20
17 16 16 17 16 14 10 7 9 8 5 16 18 29 24 23 21 16 5 16 17 11 2 3 4 8 18 17 20 21 22 16 11 4 5 8 5 5 4 4 3 10 5 5 2 5 3 5 11 12 13 15 17 18
18 20 21 20 19 17 15 13 11 7 5 13 17 26 29 24 23 14 5 4 19 16 3 3 3 6 15 14 12 15 17 12 13 6 5 4 5 14 3 6 5 5 5 5 8 8 6 8 6 12 14 15 16 17
25 26 27 26 24 23 23 18 14 10 11 11 16 26 26 23 18 19 6 2 20 14 4 3 3 3 14 9 6 14 11 13 12 7 4 3 3 6 4 5 5 5 6 8 3 1 1 9 14 15 15 17 20 21
8 21 29 30 30 29 24 18 14 13 20 17 22 24 22 17 10 13 16 10 23 8 5 5 3 0 10 6 8 6 7 4 8 5 4 6 5 5 1 5 8 10 5 7 5 6 10 13 16 17 17 19 20 22
3 12 17 20 28 34 28 23 17 21 24 27 31 13 7 14 10 10 7 4 11 9 6 3 2 3 5 5 3 7 6 5 5 5 5 4 4 3 1 4 10 10 9 10 11 8 11 14 16 17 17 17 18 21
22 22 21 23 31 36 34 26 26 33 31 24 8 6 13 23 14 9 6 8 8 4 8 4 10 1 1 3 3 1 3 2 4 4 3 3 3 3 6 10 11 9 11 4 1 3 9 12 17 17 17 17 18 20
34 33 36 38 38 36 34 30 29 31 19 10 9 15 20 9 6 3 3 3 4 2 5 4 6 3 4 1 2 2 2 2 3 2 3 2 3 7 11 12 9 9 9 2 1 5 10 13 15 16 17 18 20 21
33 35 36 36 33 31 29 29 21 20 22 10 3 3 1 3 4 5 6 3 3 5 6 8 4 2 3 3 3 1 2 2 4 3 2 2 6 10 13 10 10 9 7 4 5 9 11 14 14 16 18 20 23 24
24 28 29 28 29 29 26 21 21 10 2 2 3 3 2 2 1 0 2 2 2 2 10 8 4 2 2 2 1 2 2 2 4 3 2 3 9 12 13 9 11 10 8 7 9 10 11 13 14 14 16 17 19 21
20 21 22 24 24 19 14 10 10 5 2 2 2 2 1 1 0 0 1 3 1 7 6 6 5 2 2 2 1 3 3 3 2 1 2 5 10 15 14 12 11 10 10 9 10 10 11 12 14 15 15 16 17 19
20 23 24 21 16 10 6 9 12 5 3 3 3 2 0 2 3 2 3 3 3 6 5 3 2 2 2 2 2 1 2 2 2 2 3 6 14 16 14 11 12 11 10 11 10 10 10 12 13 14 15 15 16 18
14 17 10 7 7 7 8 6 3 4 3 2 3 3 2 3 4 2 2 2 4 1 2 1 2 2 2 2 2 1 0 2 5 5 4 6 15 15 13 12 12 12 11 12 11 11 11 12 13 13 15 15 16 17
13 10 9 9 7 5 8 4 4 4 4 5 2 4 3 3 2 3 3 3 2 3 2 2 3 2 1 2 2 3 4 5 5 5 6 7 10 13 13 14 13 12 11 12 12 11 10 10 12 12 13 15 17 18
7 7 7 9 5 2 3 4 4 3 3 2 2 3 4 4 7 6 7 9 8 8 7 2 2 1 2 1 2 5 7 6 6 6 7 7 8 9 11 11 11 11 10 11 11 12 12 11 10 12 14 16 17 19
7 6 5 8 5 3 3 3 3 4 2 2 2 2 2 2 3 6 6 4 3 2 3 2 1 2 2 2 3 3 7 10 9 8 6 6 8 9 10 9 10 12 11 12 13 12 12 12 13 13 14 16 18 20
5 3 4 8 5 7 4 3 4 3 3 2 2 2 2 2 3 3 4 4 3 2 2 2 5 6 5 2 2 4 8 9 9 7 8 8 10 9 10 9 10 12 12 13 12 12 12 10 12 14 15 16 17 18
6 4 2 4 4 4 4 4 3 2 2 3 2 1 2 1 1 2 3 3 2 2 3 5 7 7 6 4 5 7 8 9 10 9 9 9 9 10 9 9 10 11 11 11 11 11 11 12 13 13 14 16 16 18
6 4 3 4 3 3 2 2 1 1 1 2 2 2 1 1 1 1 0 1 2 5 7 7 8 7 7 9 8 8 9 8 7 7 10 10 9 10 10 11 12 11 11 11 11 11 12 13 13 14 15 16 17 18
6 2 3 3 4 2 1 1 1 2 2 2 2 2 2 1 1 2 2 3 5 9 8 9 8 10 9 9 8 9 9 8 6 5 5 6 7 8 9 8 11 12 11 10 12 12 13 13 14 15 16 17 18 19
2 3 2 3 2 1 1 1 1 1 2 1 1 1 2 2 2 2 2 4 9 9 9 9 8 8 8 8 8 9 8 7 7 5 4 3 4 6 6 7 8 10 11 11 12 13 14 14 15 16 16 17 19 21
1 1 1 1 1 1 2 2 2 2 1 2 2 1 1 2 2 3 2 7 9 10 12 12 10 7 7 8 7 9 9 10 8 5 5 5 5 5 6 6 6 8 9 10 10 12 13 14 15 15 16 17 19 21
1 2 1 1 1 2 2 1 1 1 3 3 2 3 2 3 3 1 3 7 7 11 11 10 11 13 11 11 11 10 11 10 10 8 7 6 8 8 7 7 7 7 6 8 9 10 11 14 15 14 15 16 19 21
2 1 1 3 1 0 1 1 2 1 1 1 2 4 2 2 1 2 3 6 7 8 9 11 11 11 11 13 12 11 12 12 12 12 9 8 9 11 10 8 7 6 6 7 8 9 11 13 13 13 14 16 18 19
1 1 1 1 0 1 2 2 1 2 1 2 2 1 1 2 2 4 5 6 7 8 9 9 11 11 11 12 13 12 11 11 11 11 10 7 9 10 10 9 8 7 7 9 10 8 11 12 12 11 11 13 14 16
1 1 1 1 1 2 3 4 2 3 4 5 4 4 5 8 7 7 8 9 7 10 11 11 11 12 13 13 13 13 13 14 15 12 9 9 9 10 9 9 9 8 9 12 13 14 15 15 14 14 14 14 16 17
1 1 1 2 2 2 3 3 5 7 9 7 9 10 10 5 7 11 13 12 12 11 14 16 16 16 15 15 13 11 11 11 10 12 12 10 10 10 10 10 10 10 11 13 14 14 14 14 14 15 16 16 16 16
2 2 1 2 1 2 3 3 3 4 3 5 8 7 4 5 6 6 12 17 20 19 17 16 18 17 14 12 11 10 8 5 6 8 11 11 9 8 8 10 11 12 12 13 14 14 14 14 14 14 14 15 16 17
2 2 3 2 2 2 3 3 2 3 4 4 5 5 8 5 6 6 8 13 20 21 20 16 14 13 12 12 11 9 8 8 6 5 9 10 10 9 8 10 12 12 12 12 13 14 15 15 15 14 14 14 15 16
Wind_Direction
241 258 245 238 224 245 272 303 333 41 124 148 178 174 168 175 180 190 189 199 175 180 161 183 178 159 189 204 193 152 162 188 185 206 218 219 234 240 244 251 251 228 232 222 223 237 232 182 159 213 246 65 154 176
225 230 230 231 233 239 247 267 324 347 72 125 143 153 164 171 181 187 163 179 179 179 156 188 188 194 199 216 235 196 236 163 199 214 213 215 221 240 229 245 213 245 228 247 218 263 118 180 202 186 179 184 173 165
222 228 231 236 238 242 248 257 239 255 269 152 146 158 166 171 176 180 161 174 171 185 235 240 228 214 217 217 219 228 228 231 201 234 347 255 241 231 227 232 255 228 220 232 247 208 187 209 213 198 195 196 168 163
232 232 235 240 242 244 252 252 240 272 278 209 176 170 173 178 182 184 179 177 173 156 217 232 227 231 226 228 226 225 231 222 224 219 219 256 253 225 256 277 251 288 167 222 239 234 224 223 214 202 184 157 152 155
242 241 239 240 244 251 253 254 248 257 177 194 191 181 180 181 187 186 190 192 190 197 357 262 283 228 221 213 213 216 220 220 208 216 221 241 261 266 248 268 250 198 218 219 248 260 240 351 200 186 175 164 163 157
254 246 241 240 239 240 236 231 228 216 235 193 191 187 178 178 176 163 190 219 212 209 266 265 219 209 200 196 199 202 208 213 220 219 263 257 215 170 234 227 187 199 215 223 301 97 116 125 152 169 167 159 158 160
249 245 241 237 232 224 210 215 214 219 216 183 184 186 181 176 178 169 183 194 202 193 204 246 226 188 184 182 195 201 205 210 212 205 222 248 229 194 264 252 140 183 189 153 145 127 107 155 162 156 154 152 153 156
254 246 236 229 223 216 208 207 201 193 169 153 157 170 174 179 184 199 208 115 176 169 197 265 224 201 186 167 150 177 172 178 190 184 223 232 201 227 247 141 156 151 146 146 158 205 177 157 147 149 149 150 150 153
253 230 226 220 216 211 204 199 187 166 157 146 147 152 158 173 192 210 225 255 178 185 205 216 249 308 173 144 148 136 165 171 165 190 223 198 206 221 50 167 174 163 153 159 125 121 137 148 152 154 155 156 155 156
109 164 171 175 185 189 186 171 167 143 143 141 142 143 170 191 170 181 190 231 214 207 240 241 222 222 186 150 107 142 186 150 175 173 169 231 226 117 35 167 160 151 141 140 127 139 154 161 165 165 167 166 165 162
90 112 131 144 152 159 165 156 149 147 151 143 167 165 144 165 149 187 177 201 194 207 190 197 211 131 90 97 119 144 143 183 188 140 227 194 203 128 127 130 140 142 144 127 141 183 184 180 173 169 169 170 169 168
78 98 113 119 129 139 146 150 151 148 158 169 138 131 126 162 177 205 221 185 217 167 164 180 155 140 156 210 153 104 104 189 165 142 210 230 104 136 140 138 138 146 160 147 127 158 166 169 171 170 170 169 169 170
93 95 110 122 129 134 137 137 139 158 107 94 95 93 140 128 194 207 178 183 161 154 163 162 131 110 131 76 77 113 143 123 142 192 215 59 134 150 152 137 138 145 153 143 128 137 147 155 164 169 167 172 179 183
108 112 117 123 128 138 144 156 135 111 70 110 106 127 270 178 193 106 42 69 72 133 147 141 98 71 65 70 20 120 85 204 189 211 179 130 159 153 155 149 149 151 152 146 144 148 157 166 168 177 186 182 182 183
86 118 120 122 103 85 83 110 113 95 51 51 73 64 56 327 225 129 64 125 116 141 133 115 88 88 68 107 54 131 166 197 234 148 116 134 158 157 158 158 161 159 157 155 153 152 160 166 168 169 177 182 185 187
94 99 86 85 94 93 108 125 149 187 95 82 57 181 323 217 111 72 72 94 115 130 109 75 110 100 84 108 172 171 198 207 115 114 104 151 165 165 163 160 160 159 159 156 151 154 164 171 171 171 173 183 185 189
105 67 77 71 46 99 167 166 60 65 69 64 81 55 49 53 59 73 64 77 135 115 85 106 91 68 127 145 149 205 59 89 115 105 117 147 170 170 169 169 166 161 164 163 158 159 162 172 177 177 178 182 187 189
71 59 52 20 21 70 79 63 72 66 64 38 53 29 42 54 83 66 65 100 111 99 78 84 128 127 142 172 171 135 117 102 108 121 127 136 168 183 184 176 172 166 169 174 173 173 174 176 179 180 188 188 188 190
33 27 23 15 13 87 74 52 59 93 63 41 46 44 55 74 68 66 84 88 96 102 107 106 110 131 139 110 114 126 151 160 159 147 149 152 158 170 170 170 173 173 176 183 186 188 192 192 189 194 196 196 191 190
17 1 4 6 20 88 79 49 66 91 117 107 60 47 71 61 81 54 70 85 90 69 74 68 95 101 130 124 118 145 179 178 171 154 153 168 169 173 184 183 182 183 183 186 192 197 201 205 210 209 207 201 195 193
8 7 11 17 45 63 82 54 64 77 106 100 94 55 52 55 42 34 32 35 67 51 116 130 127 129 122 108 218 198 175 177 179 184 186 174 178 177 179 188 191 190 192 195 195 200 203 205 214 210 207 205 202 203
15 11 3 21 60 66 69 50 77 90 96 117 109 68 74 83 36 24 353 60 90 145 148 148 150 142 126 113 153 167 176 183 182 187 190 191 182 191 198 207 203 200 201 204 205 212 210 213 212 208 204 203 203 201
5 13 45 40 76 59 80 67 87 69 139 133 136 134 137 176 271 332 146 121 164 174 165 151 157 150 147 134 118 135 150 145 153 168 182 189 197 205 210 215 220 215 212 215 211 211 212 213 207 205 204 202 198 197
360 44 47 51 48 93 83 80 104 117 126 185 181 187 178 201 300 235 223 173 171 163 159 163 167 174 167 163 163 160 168 171 170 170 183 202 201 211 216 216 222 218 213 216 217 214 216 212 209 204 203 200 198 195
358 12 47 64 49 94 103 115 32 157 169 185 166 209 184 199 225 227 231 173 170 181 175 175 176 171 177 182 188 186 184 187 179 169 163 179 182 193 209 219 221 220 222 223 221 220 216 213 205 203 201 199 197 191
88 358 7 116 120 251 168 181 190 180 159 183 200 135 182 235 237 233 198 180 176 183 194 197 199 197 200 204 196 197 200 192 191 198 223 223 220 225 220 213 220 230 227 227 223 219 215 209 205 202 199 199 197 191
166 158 123 153 125 137 133 125 140 215 202 204 179 181 202 233 237 173 150 164 172 194 204 213 226 224 218 217 219 215 206 207 211 216 234 239 232 229 228 231 238 243 255 239 230 217 216 208 199 195 193 193 194 196
59 149 224 171 157 169 168 182 213 228 176 150 166 201 225 226 7 165 191 196 195 208 224 233 231 217 211 211 210 214 216 220 226 229 233 246 237 231 233 240 246 243 241 224 215 211 200 194 194 192 192 193 193 196
103 93 127 59 208 187 213 201 226 203 194 194 259 245 247 242 245 251 217 212 250 247 208 204 203 204 206 206 206 206 209 209 211 222 235 228 227 227 229 237 235 229 222 204 194 192 187 186 191 192 191 191 191 191
89 159 151 149 225 231 186 196 218 226 243 245 256 272 269 267 265 257 246 231 235 215 200 197 195 193 194 196 199 205 217 229 234 234 229 227 226 231 230 228 221 217 210 200 194 186 182 188 191 194 195 195 195 197
281 254 234 222 253 213 188 216 279 272 261 254 249 249 257 268 262 252 241 236 226 222 211 202 198 200 203 207 213 222 237 245 234 218 217 217 220 228 228 221 214 208 204 201 199 198 196 194 196 199 201 203 204 205
242 227 228 253 226 240 214 259 262 254 250 246 249 229 234 234 241 250 246 221 218 219 220 213 211 214 213 215 217 226 239 242 233 234 220 206 209 212 215 208 205 201 201 201 203 204 204 207 208 207 208 211 211 212
261 246 239 270 249 234 213 226 253 273 243 241 241 231 230 235 244 249 248 230 219 220 220 221 217 210 210 216 225 233 236 242 242 246 207 203 207 212 210 204 201 200 200 202 205 207 209 210 212 214 213 212 210 209